User: anonymous   Login
Location: Unspecified
(0.0000°N, 0.0000°E)
Time: 16:14:09
(UTC+00:00)
Language:

UNISAT 6 - Orbit

View from above orbital plane
View from above orbital plane
View from above satellite
View from above satellite

Ground track
Ground track

The orbit data is extracted from the following two-line orbital elements,

1 40012U 14033C   20292.67000868  .00000173  00000-0  32969-4 0  9992
2 40012  97.6961 141.5057 0057477 323.3357  36.3925 14.74167703340573
Epoch (UTC): 18 October 2020 16:04:48
Eccentricity: 0.0057477
inclination: 97.6961°
perigee height: 607 km
apogee height: 688 km
right ascension of ascending node: 141.5057°
argument of perigee: 323.3357°
revolutions per day: 14.74167703
mean anomaly at epoch: 36.3925°
orbit number at epoch: 34057

The dashed part of the orbit path shows where the satellite is in the earth's shadow,  

DLR